Regional Weather Roundup
Issued by NWS

Home | Current Version | Previous Version | Graphics & Text | Print | Product List | Glossary Off
Versions: 1 2 3 4 5 6 7 8 9 10 11 12 13 14 15 16 17 18 19 20 21 22 23 24 25 26 27 28 29 30 31 32 33 34 35 36 37 38 39 40 41 42 43 44 45 46 47 48 49 50

000
ASUS43 KMKX 250200
RWRWI

WISCONSIN REGIONAL WEATHER ROUNDUP
NATIONAL WEATHER SERVICE MILWAUKEE/SULLIVAN WI
900 PM CDT THU MAY 24 2018

NOTE: "FAIR" INDICATES FEW OR NO CLOUDS BELOW 12,000 FEET WITH NO
SIGNIFICANT WEATHER AND/OR OBSTRUCTIONS TO VISIBILITY.

WIZ001-002-006>008-014>016-023>028-250300-
NORTHWEST WISCONSIN

CITY           SKY/WX    TMP DP  RH WIND       PRES   REMARKS
SUPERIOR ARPT  FOG       54  54 100 CALM      29.84F VSB 3/4
ASHLAND        FAIR      68  67  96 CALM      29.85F
HAYWARD        FAIR      71  70  96 CALM      29.87F
SIREN          FAIR      79  61  53 S6        29.85F HX  80
CUMBERLAND     FAIR      77  55  47 S10       29.88F
RICE LAKE      FAIR      80  58  45 S7        29.90F HX  81
CHETEK         FAIR      79  64  59 SE7       29.89F HX  81
LADYSMITH      FAIR      79  64  59 S6        29.93S HX  81
EAU CLAIRE     NOT AVBL
MENOMONIE      FAIR      79  61  54 SE6       29.88F HAZE    HX  80
NEW RICHMOND   MOCLDY    77  56  47 W24G36    29.91R
OSCEOLA        MOCLDY    77  60  55 SW20G33   29.91R
$$

WIZ003>005-009-010-017-018-250300-
NORTH CENTRAL WISCONSIN

CITY           SKY/WX    TMP DP  RH WIND       PRES   REMARKS
MANITOWISH WTR RAIN      62  62 100 SE5       29.96F
ARBOR VITAE    CLOUDY    64  62  91 E7        29.96F
WOODRUFF       CLOUDY    64  62  91 E7        29.96F
RHINELANDER    CLOUDY    79  62  56 VRB5      29.97S HX  80
EAGLE RIVER    HVY RAIN  63  61  94 NW6       30.01R
LAND O LAKES   LGT RAIN  65  64  95 SE5       30.01F
PHILLIPS       CLOUDY    78  63  60 S6        29.93S HX  80
TOMAHAWK       MOCLDY    74  61  64 CALM      29.96S
MEDFORD        FAIR      77  61  58 S8        29.95F
MERRILL        FAIR      79  63  57 S5        29.96S HX  80
$$

WIZ029-030-035-036-043>047-250300-
CENTRAL WISCONSIN

CITY           SKY/WX    TMP DP  RH WIND       PRES   REMARKS
WAUSAU         FAIR      78  60  53 S9        29.94F
MOSINEE        MOCLDY    75  61  60 S8        29.98F
MARSHFIELD     FAIR      72  63  73 S8        29.96S
STEVENS POINT  FAIR      76  59  55 S6        29.98S
WAUPACA        FAIR      78  60  54 S3        29.97S
WAUTOMA        FAIR      76  61  59 S3        29.98S
WISC RAPIDS    FAIR      76  61  59 S6        29.97F
CAMP DOUGLAS   FAIR      71  65  80 CALM      29.96F
$$

WIZ011>013-019>022-031-037>040-048>050-250300-
NORTHEAST WISCONSIN

CITY           SKY/WX    TMP DP  RH WIND       PRES   REMARKS
ANTIGO         FAIR      73  60  64 S7        29.98S
SHAWANO        FAIR      80  59  48 CALM      29.96S HX  81
OCONTO         FAIR      71  59  65 S5        29.96F
STURGEON BAY   FAIR      69  53  56 S13       29.98F
GREEN BAY      FAIR      74  59  59 S9        29.97F
MANITOWOC      FAIR      69  51  52 S10       30.00F
APPLETON       MOCLDY    73  55  53 S7        29.97S
CLINTONVILLE   FAIR      78  58  51 S6        29.96F
OSHKOSH        FAIR      72  61  68 S5        29.98S
$$

WIZ032>034-041-042-053>061-250300-
SOUTHWEST WISCONSIN

CITY           SKY/WX    TMP DP  RH WIND       PRES   REMARKS
LA CROSSE      MOCLDY    80  66  62 SE5       29.91F HX  82
SPARTA         FAIR      77  65  65 SE3       29.95F
VIROQUA        FAIR      77  65  66 S7        29.97S
BOSCOBEL       FAIR      81  64  56 S6        29.95S HX  82
PRAIRIE DU CHI FAIR      81  61  49 SE3       29.95S HX  82
PLATTEVILLE    FAIR      78  65  63 S8        29.99F HX  80
$$

WIZ056-057-062-063-064-067-068-250300-
SOUTH CENTRAL WISCONSIN

CITY           SKY/WX    TMP DP  RH WIND       PRES   REMARKS
REEDSBURG      FAIR      77  64  62 SE3       29.97S
BARABOO/DELLS  FAIR      74  62  64 S5        29.98F
LONE ROCK      NOT AVBL
MINERAL POINT  FAIR      79  63  57 S6        30.00S HX  80
MADISON        FAIR      78  62  57 S5        29.98F HX  80
MIDDLETON      FAIR      80  62  53 CALM      30.00S HX  81
WATERTOWN      FAIR      76  61  60 SE5       30.00S
MONROE         FAIR      79  59  50 S6        30.00F HX  80
JANESVILLE     CLEAR     79  57  47 S5        30.00S HX  80
$$

WIZ051-052-058>065-066-070>072-250300-
SOUTHEAST WISCONSIN

CITY           SKY/WX    TMP DP  RH WIND       PRES   REMARKS
MILWAUKEE      FAIR      72  52  49 S8        30.02F
WAUKESHA       CLEAR     72  54  53 SE7       30.03F
MILWAUKEE/TIMM CLEAR     73  46  38 S8        30.02F
RACINE         FAIR      67  51  56 S8        30.04F
BURLINGTON     FAIR      73  56  53 SE7       30.02F
KENOSHA        FAIR      69  52  54 S7        30.03F
FOND DU LAC    FAIR      73  60  63 S6        29.98F
SHEBOYGAN      FAIR      65  52  62 S5        30.01S
WEST BEND      FAIR      72  54  53 S6        30.01S
JUNEAU         FAIR      75  60  59 S6        30.00F
$$

LSZ147-162-250300-
LAKE SUPERIOR

STATION/POSITION TIME  TEMP    WIND        PRES    WAVE
                       AIR SEA DIR/SP/G            HT/PER
                 (UTC) (F)     (DEG/KT/KT) (MB)    (FT/S)
W MID LAKE BUOY  0050   43 37   80/  6/  8 1012.2F   0
DEVILS ISLAND    0100   47      80/  8/  9 1011.6F
SAXON HARBOR     0140   70     150/  7/ 12 1010.5F
$$

LMZ867-665-643>646-250300-
LAKE MICHIGAN

STATION/POSITION TIME  TEMP    WIND        PRES    WAVE
                       AIR SEA DIR/SP/G            HT/PER
                 (UTC) (F)     (DEG/KT/KT) (MB)    (FT/S)
N MID LAKE BUOY  0140   43 38  200/ 10/ 12 1015.5F
NORTHPORT PIER   0140   67     170/  5/  8 1014.9F
KEWAUNEE LAKESHO 0130   54     170/  7/ 10 1015.0F
SHEBOYGAN LAKESH 0100   63     180/ 14/ 16 1016.0F
PORT WASHINGTON  0140   61     200/  6/  9 1016.9F
ATWATER BUOY     0107   56 50  160/  8/ 10 1016.5    1
MILWAUKEE LAKESH 0130   61      CALM  /  1   N/A
S MID LAKE BUOY  0050   61 40  140/  8/ 10 1017.6F   0
KENOSHA   LAKESH 0100   64                 1016.9
$$

TC  - TEMPERATURE IN CELSIUS
VSB - VISIBILITY IN STATUTE MILES
WCI - WIND CHILL INDEX
HX  - HEAT INDEX




USA.gov is the U.S. government's official web portal to all federal, state and local government web resources and services.